www.pogodaiklimat.ru

Погода и климат >> Архив погоды >> Мексика >> Manzanillo


ПОГОДА в Manzanillo

  • Прогноз погоды в Manzanillo
  • Монитор погоды в Manzanillo
  • Климат города

АРХИВ ПОГОДЫ в Manzanillo

Время (UTC), дата Ветер
(напр.,м/с)
 
Видим.   Явления Облачность Т
(С)
Тd
(С)
f
(%)
Тe
(С)
Тes
(С)
Комфортность P
(гПа)
Po
(гПа)
Тmin
(С)
Tmax
(С)
R
(мм)
R24
(мм)
S
(см)
03 14.11 СВ 1 6000 м мгла {туман} 6/3 600 м
[Sc diur, vesp Ac trans]
+27.2 +24.7 86 +39 +39 очень
душно
1012.6 1012.3
06 14.11 С 1 6000 м мгла {туман} 1/1 600 м
[Sc diur, vesp]
+26.6 +23.6 84 +36 +36 очень
душно
1013.1 1012.7 +32.0
09 14.11 С 2 6000 м мгла {туман} ясно +25.2 +22.9 87 +33 +33 очень
душно
1013.0 1012.6
12 14.11 С 2 6000 м мгла {туман} ясно +24.6 +21.1 81 +31 +31 очень
душно
1012.0 1011.6 +24.6 +32.0
15 14.11 С 2 6000 м мгла {туман} ясно +25.0 +21.7 82 +32 +35 очень
душно
1014.6 1014.2
18 14.11 ЮВ 2 6000 м мгла {туман} ясно +31.1 +23.7 65 +42 +55 опасность
перегрева
1015.2 1014.8 +24.0 +32.1
21 14.11 штиль 0 6000 м мгла {туман} 1/1 600 м
[Cu hum]
+31.7 +21.6 55 +40 +51 опасность
солнечного
удара
1013.2 1012.8
00 15.11 штиль 0 6000 м мгла {туман} 1/1 300 м
[Cu hum]
+30.0 +24.4 72 +42 +42 опасность
перегрева
1012.2 1011.8 +24.0 +33.9
03 15.11 С 2 6000 м мгла {туман} ясно +26.7 +22.9 80 +36 +36 очень
душно
1014.2 1013.8
06 15.11 С 2 6000 м мгла {туман} ясно +25.5 +21.0 76 +32 +32 очень
душно
1014.2 1013.8 +24.0 +33.9
09 15.11 С 1 6000 м мгла {туман} ясно +25.2 +21.4 79 +32 +32 очень
душно
1013.6 1013.2
12 15.11 С 3 6000 м мгла {туман} ясно +23.6 +20.4 82 +29 +29 душно 1012.0 1011.6 +23.6 +33.9
15 15.11 С 2 6000 м мгла {туман} ясно +24.4 +17.0 63 +28 +31 душно 1014.3 1013.9
18 15.11 В 1 6000 м мгла {туман} ясно +31.4 +17.8 44 +36 +50 очень
душно
1014.6 1014.2 +23.2 +32.5
21 15.11 штиль 0 6000 м мгла {туман} ясно +30.7 +18.5 48 +36 +48 очень
душно
1012.1 1011.7
00 16.11 Ю 2 6000 м мгла {туман} ясно +28.2 +21.2 66 +36 +36 очень
душно
1011.3 1011.0 +22.9 +32.6
03 16.11 С 1 6000 м мгла {туман} ясно +24.9 +21.5 81 +32 +32 очень
душно
1013.6 1013.2
06 16.11 С 2 6000 м мгла {туман} ясно +24.4 +20.4 78 +30 +30 очень
душно
1013.6 1013.2 +23.2 +32.6
09 16.11 С 2 6000 м мгла {туман} ясно +23.5 +20.4 83 +29 +29 душно 1014.5 1014.1
12 16.11 С 3 6000 м мгла {туман} ясно +22.8 +17.8 73 +28 +28 душно 1012.2 1011.8 +22.8 +32.6
15 16.11 С 3 6000 м мгла {туман} ясно +24.7 +17.3 63 +29 +31 душно 1013.3 1012.9
18 16.11 Ю 1 6000 м мгла {туман} 1/0
[Cs]
+31.1 +19.0 49 +37 +51 опасность
солнечного
удара
1014.4 1014.0 +22.6 +32.6
21 16.11 ЮЗ 3 6000 м мгла {туман} 8/0
[Ci]
+31.0 +22.7 61 +41 +47 опасность
перегрева
1010.9 1010.5
00 17.11 З 1 6000 м мгла {туман} 9/0
[Cs]
+28.2 +23.5 76 +38 +39 очень
душно
1011.2 1010.8 +22.6 +32.6
15 17.11 С 3 6000 м мгла {туман} ясно +25.8 +14.2 49 +28 +30 жарко 1014.0 1013.6
18 17.11 ЮВ 1 6000 м мгла {туман} ясно +31.5 +14.4 35 +33 +48 жарко 1013.9 1013.5 +22.5 +33.0
03 18.11 С 2 6000 м мгла {туман} ясно +25.9 +17.2 59 +30 +30 душно 1013.0 1012.6
06 18.11 С 2 6000 м мгла {туман} ясно +24.4 +17.0 63 +28 +28 душно 1014.5 1014.1 +34.0
09 18.11 СВ 1 6000 м мгла {туман} ясно +23.8 +19.4 76 +29 +29 душно 1013.6 1013.2
12 18.11 С 1 6000 м мгла {туман} ясно +22.8 +19.3 81 +29 +29 очень
душно
1012.1 1011.7 +22.8 +34.0
15 18.11 С 1 6000 м мгла {туман} 6/0
[Ci fib]
+26.1 +20.4 71 +32 +35 очень
душно
1013.1 1012.7
18 18.11 З 2 6000 м мгла {туман} 1/0
[Ci fib]
+30.5 +20.7 56 +38 +50 очень
душно
1013.9 1013.5 +21.8 +31.6
21 18.11 Ю 1 7000 м мгла {туман} ясно +30.6 +22.4 62 +40 +51 опасность
солнечного
удара
1011.0 1010.6
00 19.11 З 1 7000 м мгла {туман} ясно +28.6 +20.8 63 +36 +36 очень
душно
1011.4 1011.0 +21.8 +31.9
03 19.11 Ю 1 6000 м мгла {туман} ясно +25.2 +22.3 84 +33 +33 очень
душно
1013.7 1013.3
09 19.11 СВ 1 6000 м мгла {туман} ясно +23.7 +20.1 80 +29 +29 душно 1013.6 1013.2
12 19.11 С 1 6000 м мгла {туман} ясно +22.8 +18.7 78 +29 +29 очень
душно
1013.4 1013.0 +22.8 +31.9
15 19.11 С 2 6000 м мгла {туман} ясно +24.7 +15.9 58 +28 +30 душно 1015.3 1014.9
18 19.11 ЮЗ 2 6000 м мгла {туман} ясно +29.7 +20.7 58 +37 +49 очень
душно
1015.4 1015.0 +22.3 +30.9
21 19.11 З 3 7000 м мгла {туман} 1/0
[Ci fib]
+29.7 +23.2 68 +40 +47 очень
душно
1012.5 1012.1
00 20.11 ЮЗ 1 7000 м мгла {туман} 3/0
[Ci fib]
+27.9 +23.0 75 +37 +38 очень
душно
1011.8 1011.4 +22.3 +30.9
03 20.11 СЗ 1 6000 м мгла {туман} 1/0
[Ci fib]
+25.9 +23.0 84 +35 +35 очень
душно
1013.4 1013.0
06 20.11 С 1 6000 м мгла {туман} 1/0
[Ci fib]
+24.4 +22.6 90 +32 +32 очень
душно
1013.2 1012.8 +22.3 +30.9
09 20.11 СВ 1 6000 м мгла {туман} ясно +23.6 +20.5 83 +29 +29 душно 1013.0 1012.6
12 20.11 С 1 6000 м мгла {туман} ясно +23.0 +19.5 81 +30 +30 очень
душно
1011.9 1011.5 +23.0 +30.9
15 20.11 СВ 2 7000 м мгла {туман} 5/0
[Ci fib]
+25.3 +19.7 71 +31 +33 очень
душно
1013.3 1012.9
18 20.11 СЗ 1 7000 м мгла {туман} 1/0
[Ci fib]
+30.6 +23.9 67 +42 +56 опасность
перегрева
1014.2 1013.8 +22.9 +31.5
21 20.11 ЮЗ 2 6000 м мгла {туман} 1/0
[Ci fib]
+31.2 +23.2 63 +42 +51 опасность
перегрева
1012.5 1012.2

 

Местоположение метеостанции Manzanillo (Мексика): широта 19.05 долгота -104.30 высота над уровнем моря 3 м.

В архиве по умолчанию представлена погода в Manzanillo за последнюю неделю. Архивные данные за месяц целиком и за предыдущие месяцы, начиная с января 2011 года, Вы можете получить, выбрав интересующий диапазон дат из раскрывающегося списка и нажав кнопку "Ввод!".


*Определитесь, кто Вы:
робот инопланетянин человек

Внимание! Время в таблицах - всемирное. Для получения местного времени необходимо прибавить поправку, которая в Manzanillo равна -6 ч.

Смотрите также архив погоды в соседних городах и на ближайших метеорологических станциях:

Погода в Colima (Мексика) (88 км)
Погода в Ciudad Guzman (Мексика) (120 км)
Погода в Guadalajara (Мексика) (208 км)
Погода в Zamora (Мексика) (234 км)
Погода в Tepic (Мексика) (280 км)
Погода в Morelia (Мексика) (343 км)
Погода в Colotlan (Мексика) (356 км)
Погода в Lagos De Moreno (Мексика) (357 км)
Погода в Aguascalientes (Мексика) (377 км)
Погода в Huejucar (Мексика) (383 км)

Пояснения к столбцам:

Ветер - указаны скорость ветра в м/с - средняя за 10 мин, порывы в срок и между сроками (в фигурных скобках) и направление, откуда дует ветер: С - северный, СВ - северо-восточный, В - восточный, ЮВ - юго-восточный, Ю - южный, ЮЗ - юго-западный, З - западный, СЗ - северо-западный.
Видимость - горизонтальная дальность видимости в метрах или километрах. При видимости от 1 до 10 км при отсутствии осадков обычно наблюдается дымка, при ухудшении видимости до 1 км и менее - туман. В сухую погоду видимость может ухудшаться дымом, пылью или мглою.
Явления - указаны атмосферные явления, наблюдавшиеся в срок или в последний час перед сроком; фигурными скобками обозначены явления, наблюдавшиеся между сроками (за 1-3 часа до срока); квадратными скобками обозначены град или гололедные отложения с указанием их диаметра в мм.
Облачность - указаны через наклонную черту общая и нижняя облачность в баллах и высота нижней границы облаков в метрах; квадратными скобками обозначены формы облаков: Ci - перистые, Cs - перисто-слоистые, Cc - перисто-кучевые, Ac - высококучевые, As - высокослоистые, Sc - слоисто-кучевые, Ns - слоисто-дождевые, Cu - кучевые, Cb - кучево-дождевые. Подробнее классификацию облаков см. в Атласе облаков (PDF).
T - Температура воздуха - температура, измеренная на высоте 2 м над землей.
Td - Температура точки росы - температура, при понижении до которой содержащийся в воздухе водяной пар достигнет насыщения.
f - Относительная влажность воздуха - влажноcть воздуха, измеренная на высоте 2 м над землей.
Te - Эффективная температура - температура, которую ощущает одетый по сезону человек в тени. Характеристика душности погоды. При расчете учитывается влияние влажности воздуха и скорости ветра на теплоощущения человека.
Tes - Эффективная температура на солнце - температура, которую ощущает человек, с поправкой на солнечный нагрев. Характеристика знойности погоды. Зависит от высоты солнца над горизонтом, облачности и скорости ветра. Ночью, в пасмурную погоду, а также при ветре 12 м/с и более поправка равна нулю.
P - Атмосферное давление - приведенное к уровню моря атмосферное давление.
Po - Атмосферное давление - измеренное на уровне метеостанции атмосферное давление.
Tmin - Минимальная температура - минимум температуры воздуха на высоте 2 м над землей.
Tmax - Максимальная температура - максимум температуры воздуха на высоте 2 м над землей.
R - Количество осадков - Количество выпавших осадков за период времени, мм. При наведении курсора мыши на число - период времени, за который выпало указанное количество осадков.
R24 - Количество осадков - Количество выпавших осадков за 24 часа, мм.
S - Снежный покров - Высота снежного покрова, см. При наведении курсора мыши на число - состояние снежного покрова и степень покрытия местности в баллах.